Location: Bittkow
(50.3000°N, 19.0000°E)
Time: 12:18:19
(UTC+00:00)

Cosmos 389 Rocket - Pass Details

Date: 19 September 2020
Orbit: 442 x 475 km, 81.1° (Epoch: 23 October)

Event Time Altitude Azimuth Distance (km) Brightness Sun altitude
Exits shadow 02:32:00 46° 200° (SSW) 638 2.8 -18.4°
Maximum altitude 02:32:58 83° 280° (W) 476 2.3 -18.2°
Drops below altitude 10° 02:36:34 10° 11° (N) 1,639 5.7 -17.7°
Sets 02:38:40 0° 12° (NNE) 2,526 6.7 -17.4°
